Asheville, NC

11:11 PM EST on January 18, 2018 (GMT -0500)
Asheville Regional

Weather History for KAVL - June, 2005

Change the Weather History Date:

Friday, June 10, 2005

  Actual Average Record
Temperature  
Mean Temperature 74 °F 69 °F  
Max Temperature 80 °F 80 °F 93 °F (1947)
Min Temperature 67 °F 58 °F 44 °F (1988)
Degree Days  
Heating Degree Days 0 1  
Month to date heating degree days 17 10  
Since 1 June heating degree days 10  
Since 1 July heating degree days 3864 4191  
Cooling Degree Days 9 5  
Month to date cooling degree days 56 44  
Year to date cooling degree days 70 102  
Since 1 June cooling degree days 44  
Growing Degree Days 22 (Base 50)    
Moisture  
Dew Point 67 °F    
Average Humidity 82    
Maximum Humidity 97    
Minimum Humidity 67    
Precipitation  
Precipitation 0.52 in 0.15 in 1.63 in (1921)
Month to date precipitation 2.34 1.47  
Year to date precipitation 14.75 19.72  
Snow  
Snow 0.00 in 0.00 in 0.00 in ()
Month to date snowfall 0.0 0.0  
Since 1 June snowfall 0.0  
Since 1 July snowfall 6.6 9.9  
Snow Depth 0.00 in    
Sea Level Pressure  
Sea Level Pressure 30.12 in    
Wind  
Wind Speed 5 mph (SSE)    
Max Wind Speed 15 mph    
Max Gust Speed 20 mph    
Visibility 8 miles    
Events Rain    
T = Trace of Precipitation, MM = Missing Value Source: NWS Daily Summary

Daily Weather History Graph

Daily Weather History Graph

Search for Another Location

Airport or City:

Trip Planner

Search our weather history database for the weather conditions in past years. The results will help you decide how hot, cold, wet, or windy it might be!

Date:

Astronomy

Jun. 10, 2005 Rise Set
Actual Time 6:14 AM EDT 8:45 PM EDT
Civil Twilight 5:44 AM EDT 9:14 PM EDT
Nautical Twilight 5:07 AM EDT 9:51 PM EDT
Astronomical Twilight 4:27 AM EDT 10:32 PM EDT
Moon 9:12 AM EDT (6/10) No Moon Set
Length of Visible Light 15h 30m
Length of Day
14h 30m
Waxing Crescent, 13% of the Moon is Illuminated
Jun 10
Waxing Crescent
Jun 14
First Quarter
Jun 22
Full
Jun 28
Last Quarter
Jul 6
New

Hourly Weather History & Observations

Time (EDT) Temp. Dew Point Humidity Pressure Visibility Wind Dir Wind Speed Gust Speed Precip Events Conditions
12:54 AM 68.0 °F 66.0 °F 93% 30.09 in 8.0 mi SE 3.5 mph - N/A   Mostly Cloudy
1:03 AM 69.8 °F 66.2 °F 88% 30.16 in 9.0 mi ESE 4.6 mph - N/A   Overcast
1:54 AM 69.1 °F 66.0 °F 90% 30.07 in 10.0 mi Calm Calm - N/A   Overcast
2:33 AM 69.8 °F 66.2 °F 88% 30.15 in 10.0 mi SE 4.6 mph - N/A   Overcast
2:54 AM 69.1 °F 64.9 °F 87% 30.07 in 10.0 mi SSE 3.5 mph - N/A   Mostly Cloudy
3:31 AM 68.0 °F 66.2 °F 94% 30.15 in 9.0 mi Calm Calm - N/A   Overcast
3:54 AM 69.1 °F 64.9 °F 87% 30.06 in 10.0 mi SE 3.5 mph - N/A   Mostly Cloudy
4:10 AM 68.0 °F 64.4 °F 88% 30.14 in 10.0 mi Calm Calm - N/A   Scattered Clouds
4:20 AM 69.8 °F 64.4 °F 83% 30.14 in 10.0 mi SE 4.6 mph - N/A   Mostly Cloudy
4:54 AM 66.9 °F 64.9 °F 93% 30.06 in 6.0 mi SSE 3.5 mph - N/A   Mostly Cloudy
5:54 AM 68.0 °F 64.9 °F 90% 30.07 in 7.0 mi Calm Calm - N/A   Overcast
6:25 AM 68.0 °F 64.4 °F 88% 30.16 in 8.0 mi Calm Calm - N/A   Overcast
6:45 AM 68.0 °F 66.2 °F 94% 30.17 in 6.0 mi Calm Calm - N/A   Overcast
6:54 AM 68.0 °F 66.0 °F 93% 30.09 in 5.0 mi Calm Calm - N/A   Overcast
7:54 AM 70.0 °F 66.9 °F 90% 30.12 in 6.0 mi SE 3.5 mph - N/A   Overcast
8:23 AM 71.6 °F 66.2 °F 83% 30.19 in 10.0 mi Calm Calm - N/A   Scattered Clouds
8:54 AM 71.6 °F 66.2 °F 83% 30.19 in 10.0 mi South 6.9 mph - N/A   Mostly Cloudy
9:19 AM 73.4 °F 66.2 °F 78% 30.19 in 10.0 mi SSE 5.8 mph - N/A   Scattered Clouds
9:27 AM 73.4 °F 66.2 °F 78% 30.19 in 10.0 mi Variable 4.6 mph - N/A   Mostly Cloudy
9:41 AM 73.4 °F 66.2 °F 78% 30.19 in 10.0 mi SSE 5.8 mph - N/A   Mostly Cloudy
9:54 AM 73.9 °F 66.9 °F 79% 30.12 in 10.0 mi SSE 8.1 mph - N/A   Mostly Cloudy
10:01 AM 73.4 °F 66.2 °F 78% 30.19 in 10.0 mi ESE 4.6 mph - N/A   Scattered Clouds
10:54 AM 75.9 °F 66.9 °F 74% 30.10 in 10.0 mi SSE 11.5 mph - N/A   Scattered Clouds
11:54 AM 75.9 °F 66.9 °F 74% 30.11 in 10.0 mi SSE 10.4 mph - N/A   Scattered Clouds
12:54 PM 79.0 °F 66.0 °F 64% 30.10 in 10.0 mi SE 9.2 mph - N/A   Mostly Cloudy
1:01 PM 78.8 °F 64.4 °F 61% 30.17 in 10.0 mi SSE 9.2 mph - N/A   Scattered Clouds
1:54 PM 79.0 °F 66.0 °F 64% 30.08 in 10.0 mi SE 11.5 mph - N/A   Mostly Cloudy
2:54 PM 77.0 °F 66.0 °F 69% 30.06 in 10.0 mi South 15.0 mph - 0.00 in Rain Light Rain
3:54 PM 75.9 °F 66.0 °F 71% 30.05 in 10.0 mi SSE 9.2 mph - 0.00 in Rain Light Rain
4:54 PM 71.1 °F 68.0 °F 90% 30.06 in 1.5 mi East 11.5 mph - 0.07 in Rain Heavy Rain
5:23 PM 69.8 °F 66.2 °F 88% 30.14 in 5.0 mi SSE 5.8 mph - 0.21 in Rain Light Rain
5:35 PM 71.6 °F 68.0 °F 88% 30.13 in 5.0 mi Variable 3.5 mph - 0.22 in Rain Light Rain
5:42 PM 71.6 °F 68.0 °F 88% 30.13 in 5.0 mi Variable 4.6 mph - 0.22 in   Overcast
5:54 PM 72.0 °F 68.0 °F 87% 30.06 in 5.0 mi SE 3.5 mph - 0.22 in   Mostly Cloudy
6:37 PM 71.6 °F 69.8 °F 94% 30.13 in 3.0 mi South 4.6 mph - 0.02 in Rain Light Rain
6:54 PM 73.0 °F 69.1 °F 87% 30.06 in 10.0 mi South 4.6 mph - 0.02 in   Mostly Cloudy
7:01 PM 73.4 °F 69.8 °F 88% 30.13 in 10.0 mi SSE 3.5 mph - N/A   Scattered Clouds
7:54 PM 72.0 °F 69.1 °F 91% 30.06 in 10.0 mi Calm Calm - N/A   Clear
8:39 PM 69.8 °F 68.0 °F 94% 30.14 in 2.5 mi ESE 10.4 mph - 0.02 in Rain Heavy Rain
8:54 PM 69.1 °F 66.9 °F 93% 30.07 in 4.0 mi SSE 5.8 mph - 0.16 in Rain Rain
9:10 PM 69.8 °F 66.2 °F 88% 30.14 in 8.0 mi SE 3.5 mph - 0.00 in   Overcast
9:25 PM 69.8 °F 66.2 °F 88% 30.15 in 9.0 mi Calm Calm - N/A   Overcast
9:54 PM 70.0 °F 68.0 °F 93% 30.08 in 8.0 mi South 3.5 mph - 0.00 in   Overcast
10:27 PM 69.8 °F 66.2 °F 88% 30.16 in 6.0 mi South 3.5 mph - 0.02 in Rain Light Rain
10:43 PM 69.8 °F 66.2 °F 88% 30.16 in 7.0 mi Calm Calm - 0.02 in   Mostly Cloudy
10:54 PM 69.1 °F 66.9 °F 93% 30.09 in 6.0 mi Calm Calm - 0.02 in   Mostly Cloudy
11:13 PM 69.8 °F 66.2 °F 88% 30.16 in 7.0 mi Calm Calm - N/A   Overcast
11:32 PM 69.8 °F 66.2 °F 88% 30.16 in 6.0 mi Calm Calm - N/A   Overcast
11:54 PM 69.1 °F 66.9 °F 93% 30.08 in 4.0 mi South 3.5 mph - 0.03 in Rain Rain